Location: Unspecified
(42.3650°N, 71.1030°W)
Time: 21:29:19
(UTC+00:00)

ASTEX 1 - Pass Details

Date: 02 March 2024
Orbit: 718 x 738 km, 92.7° (Epoch: 15 April)

Event Time Altitude Azimuth Distance (km) Brightness Sun altitude
Rises 23:45:35 0° 12° (NNE) 3,150 6.6 -13.6°
Reaches altitude 10° 23:47:59 10° 18° (NNE) 2,227 5.8 -14.0°
Maximum altitude 23:52:41 45° 91° (E) 994 3.6 -14.9°
Drops below altitude 10° 23:57:23 10° 164° (SSE) 2,223 5.7 -15.8°
Sets 23:59:46 0° 171° (S) 3,144 6.5 -16.2°
